Regional Weather Roundup
Issued by NWS

Home | Current Version | Previous Version | Graphics & Text | Print | Product List | Glossary Off
Versions: 1 2 3 4 5 6 7 8 9 10 11 12 13 14 15 16 17 18 19 20 21 22 23 24 25 26 27 28 29 30 31 32 33 34 35 36 37 38 39 40 41 42 43 44 45 46 47 48 49 50

000
ASUS45 KBOU 070007
RWRCO

WEATHER ROUNDUP FOR COLORADO
NATIONAL WEATHER SERVICE DENVER/BOULDER CO
500 PM MST FRI MAR 06 2015

NOTE: "FAIR" INDICATES FEW OR NO CLOUDS BELOW 12000 FEET WITH NO
SIGNIFICANT WEATHER AND/OR OBSTRUCTIONS TO VISIBILITY.

COZ001>005-013-030-031-070100-
...NORTHWEST COLORADO...

CITY           SKY/WX    TMP DP  RH WIND       PRES   REMARKS
CRAIG          SUNNY     45  22  40 E6        30.36S
HAYDEN         SUNNY     43  12  28 CALM      30.36F
MEEKER         SUNNY     48  14  25 SW7       30.34F
MOUNT WERNER   NOT AVBL
STEAMBOAT SPGS SUNNY     40  13  34 CALM      30.37S
WALDEN         SUNNY     34  10  37 S7        30.34S WCI  28
$$

COZ006>008-011-070100-
...WEST CENTRAL VALLEYS...

CITY           SKY/WX    TMP DP  RH WIND       PRES   REMARKS
GRAND JUNCTION SUNNY     52  15  23 NW3       30.32F
MONTROSE       SUNNY     50  17  27 CALM      30.35F
EAGLE          NOT AVBL
RIFLE          SUNNY     53  14  21 CALM      30.33F
DELTA          SUNNY     56  12  17 SW7       30.33F
NUCLA          SUNNY     52  18  25 CALM      30.35S
$$

COZ017>023-064>068-070100-
...SOUTHWEST COLORADO...

CITY           SKY/WX    TMP DP  RH WIND       PRES   REMARKS
DURANGO        SUNNY     45  18  34 E6        30.31F
CORTEZ         SUNNY     51  27  39 W7        30.31F
PAGOSA SPRINGS SUNNY     49   4  16 CALM      30.33S
TELLURIDE      SUNNY     40   6  23 W9        30.37S
WOLF CREEK PAS NOT AVBL
$$

COZ009-010-012-014-032>034-037-058>063-070100-
...CENTRAL COLORADO...

CITY           SKY/WX    TMP DP  RH WIND       PRES   REMARKS
ASPEN          SUNNY     41  15  35 N6        30.35R
BUENA VISTA    SUNNY     43  17  34 SW3       30.29S
COPPER MTN     SUNNY     30   3  31 W14G20    30.41S WCI  20
BERTHOUD PASS  NOT AVBL
COTTONWOOD PAS SUNNY     41   3  20 SE6       30.35R
GUNNISON       SUNNY     30  10  43 CALM      30.40F
KREMMLING      SUNNY     36  18  48 CALM      30.37S
LEADVILLE      SUNNY     34   9  35 NW14      30.35R WCI  25
SALIDA         SUNNY     49   8  19 SW13      30.35S
SUNLIGHT       SUNNY     32  16  51 CALM        N/A
WILKERSON PASS SUNNY     32   5  32 W6        30.39R WCI  26
$$

COZ069>075-070100-
...SAN LUIS VALLEY/SANGRE DE CRISTO MOUNTAINS...

CITY           SKY/WX    TMP DP  RH WIND       PRES   REMARKS
ALAMOSA        SUNNY     43  19  38 W7        30.32S
LA VETA PASS   SUNNY     34   9  35 S8G16     30.35S WCI  27
SAGUACHE       SUNNY     41  14  33 S7        30.34S
$$

COZ035-036-038>040-070100-
...NORTHERN COLORADO FRONT RANGE...

CITY           SKY/WX    TMP DP  RH WIND       PRES   REMARKS
DENVER INTL AP CLEAR     45  27  49 SE8       30.22S
DMNS CITY PARK   N/A     52  13  21 E3        30.21S
AURORA         PTCLDY    43  27  53 SE10      30.23S
FRONT RANGE AP PTCLDY    48  27  43 S6        30.23S
ERIE MUNI ARPT CLEAR     46  26  46 NW6       30.22S
BOULDER MUN AP SUNNY     46  18  31 NW3       30.22S
CENTENNIAL     PTCLDY    47  16  29 S7        30.22S
BROOMFIELD     CLEAR     45  25  45 NW8       30.22F
FORT COLLINS   CLEAR     46  23  39 CALM      30.25S
LONGMONT       CLEAR     51  22  32 NW3       30.25R
$$

COZ041-046-047-076>085-087-088-070100-
...PIKES PEAK/PALMER DIVIDE AND SOUTHERN FOOTHILLS...

CITY           SKY/WX    TMP DP  RH WIND       PRES   REMARKS
COLO. SPRINGS  PTCLDY    46  22  38 S8        30.26R
A. F. ACADEMY  SUNNY     44  17  32 SE8       30.25R
ELLICOTT       NOT AVBL
FALCON         CLEAR     45  18  33 S7        30.28R
FORT CARSON    SUNNY     48  24  38 E8        30.23S
LIMON          CLEAR     36  28  73 N5        30.25S
MONUMENT HILL  CLEAR     41  23  48 S7        30.25S
TRINIDAD       SUNNY     55  24  30 E6        30.23F
$$

COZ042>045-048>051-090-091-070100-
...NORTHEAST COLORADO...

CITY           SKY/WX    TMP DP  RH WIND       PRES   REMARKS
GREELEY ARPT   CLEAR     52  25  35 W8        30.21S
AKRON          CLEAR     53  16  23 NW10      30.20F
BURLINGTON     CLEAR     53  20  27 SW10      30.23S
WRAY           CLEAR     59  14  16 W10       30.19S
STERLING       CLEAR     55  18  22 N9G18     30.19S
HOLYOKE        CLEAR     59  14  17 NW14      30.18S
FORT MORGAN    CLEAR     56  13  17 NW8       30.21S
$$

COZ086-089-092>099-070100-
...SOUTHEAST COLORADO...

CITY           SKY/WX    TMP DP  RH WIND       PRES   REMARKS
PUEBLO         CLEAR     56  17  21 SE7       30.21S
LA JUNTA       CLEAR     59  24  26 E5        30.21S
LAMAR          CLEAR     60  21  22 SW6       30.20F
SPRINGFIELD      N/A     55  21  26 S9        30.22F
$$



USA.gov is the U.S. government's official web portal to all federal, state and local government web resources and services.